Location: Leuk
(46.3174°N, 7.6341°E)
Time: 12:15:36
(UTC+00:00)

MOS 1 Rocket - Pass Details

Date: 18 June 2021
Orbit: 615 x 829 km, 97.4° (Epoch: 26 July)

Event Time Altitude Azimuth Distance (km) Brightness Sun altitude
Rises 02:11:09 0° 107° (ESE) 2,882 6.8 -11.4°
Reaches altitude 10° 02:15:34 10° 63° (ENE) 1,994 6.8 -10.9°
Maximum altitude 02:16:01 10° 57° (ENE) 1,987 6.9 -10.9°
Drops below altitude 10° 02:16:28 10° 51° (NE) 1,999 7.1 -10.8°
Sets 02:20:57 0° 8° (N) 2,947 7.6 -10.3°
